Flag for U.S.A. Weather past 2 weeks in St. Petersburg, Florida, U.S.A.

Now
80 °F

Sunny.


Feels Like: 84 °F
Forecast: 80 / 91 °F
Wind: 6 mph from South

Location: Whitted Airport

Current Time: Jul 3, 2015 at 9:06:23 AM

Latest Report: Jul 3, 2015 at 7:53 AM


Visibility: 10 mi

Pressure: 30.07 "Hg

Humidity: 79%

Dew point: 73 °F

Location of St. PetersburgLocation

Historic Weather in St. Petersburg — Graph

°F

St. Petersburg temperature yesterday

Maximum temperature yesterday: 90 °F (at 12:53 PM)
Minimum temperature yesterday: 81 °F (at 4:53 AM)
Average temperature yesterday: 85 °F

Past Weeks' High & Low Weather Summary

 TemperatureHumidityPressure
High92 °F (Jun 22, 4:53 PM)94% (Jun 23, 7:53 PM)30.17 "Hg (Jun 23, 7:53 PM)
Low76 °F (Jun 22, 7:53 AM)42% (Jul 1, 2:53 PM)29.97 "Hg (Jun 28, 3:53 AM)
Average85 °F70%30.07 "Hg
* Reported Jun 18 7:53 AM — Jul 3 7:53 AM, St. Petersburg, Weather by CustomWeather, © 2015

Note: Actual official high and low records may vary slightly from our data, if they occured in-between our weather recording intervals... More about our weather records

Advertising

St. Petersburg weather history for previous 24 hours

 ConditionsComfort  
Time TempWeatherWind HumidityBarometerVisibility
7:53 AM
Fri, Jul 3
80 °FSunny.6 mph79%30.07 "Hg10 mi
6:53 AM80 °FClear.6 mph76%30.06 "Hg10 mi
5:53 AM80 °FClear.8 mph74%30.05 "Hg10 mi
4:53 AM81 °FClear.8 mph69%30.04 "Hg10 mi
3:53 AM81 °FClear.7 mph72%30.04 "Hg10 mi
2:53 AM81 °FClear.12 mph72%30.05 "Hg10 mi
1:53 AM82 °FClear.10 mph70%30.06 "Hg10 mi
12:53 AM82 °FClear.12 mph70%30.08 "Hg10 mi
11:53 PM
Thu, Jul 2
83 °FClear.14 mph70%30.09 "Hg10 mi
10:53 PM83 °FClear.12 mph74%30.09 "Hg10 mi
9:53 PM85 °FClear.5 mph70%30.07 "Hg10 mi
8:53 PM85 °FSunny.5 mph70%30.07 "Hg10 mi
7:53 PM86 °FSunny.10 mph67%30.07 "Hg10 mi
6:53 PM87 °FSunny.9 mph65%30.04 "Hg10 mi
5:53 PM87 °FSunny.9 mph61%30.06 "Hg10 mi
4:53 PM87 °FPassing clouds.No wind59%30.06 "Hg10 mi
3:53 PM89 °FThunderstorms. Passing clouds.6 mph55%30.06 "Hg10 mi
2:53 PM89 °FThundershowers. Sunny.13 mph57%30.07 "Hg10 mi
1:53 PM83 °FThunderstorms. Scattered clouds.9 mph68%30.09 "Hg10 mi
12:53 PM90 °FThunderstorms. Passing clouds.7 mph57%30.11 "Hg10 mi
11:53 AM88 °FSunny.8 mph59%30.12 "Hg10 mi
10:53 AM86 °FSunny.7 mph65%30.11 "Hg10 mi
9:53 AM85 °FSunny.7 mph68%30.11 "Hg10 mi
Weather by CustomWeather, © 2015

See weather overviewHow to use our weather pages